[[{"header":{"parameterUnit":"m.s-1","parameterCategory":1,"la1":30.2991,"la2":30.254,"lo1":-89.0895,"lo2":-89.0444,"dy":0.0017,"dx":0.0017,"nx":28,"ny":28,"refTime":"2024-03-16T09:00:00:Z","depth":0,"parameterNumber":2,"parameterNumberName":"U-component_of_WINDS"},"data":[0,0,0,0,0,0,0,0,0,0,0,0,0,0,0,0,0,0,0,0,0,0,0,0,0,0,0,0,0,0,0,0,0,0,0,0,0,0,0,0,0,0,0,0,0,0,0,0,0,0,0,0,0,0,0,0,0,0,-0.2073,-0.2072,0,-0.1969,-0.1968,-0.1966,-0.1917,-0.1917,-0.1917,-0.1917,-0.1809,-0.1806,-0.1804,0,0,0,0,0,0,0,0,0,0,0,0,0,-0.2229,-0.2226,-0.2073,-0.2072,-0.207,-0.1969,-0.1968,-0.1966,-0.1917,-0.1917,-0.1917,-0.1917,-0.181,-0.1807,-0.1803,0,0,0,0,0,0,0,0,0,0,0,0,0,-0.2147,-0.2226,-0.2073,-0.2034,-0.2029,-0.1969,-0.1968,-0.1966,-0.1917,-0.1917,-0.1917,-0.1917,-0.1811,-0.1807,-0.1803,-0.1774,0,0,-0.1789,-0.1787,0,0,0,0,0,0,0,0,-0.2151,-0.2141,-0.2041,-0.2036,-0.2031,-0.1956,-0.1983,-0.1901,-0.1917,-0.1959,-0.1917,-0.1917,-0.1858,-0.185,-0.183,-0.1769,-0.1764,-0.1789,-0.1786,-0.1784,-0.1783,0,0,0,0,0,0,0,-0.2157,-0.2145,-0.2032,-0.2039,-0.2033,-0.2021,-0.2009,-0.1967,-0.1909,-0.1956,-0.1952,-0.194,-0.1855,-0.1834,-0.1827,-0.1763,-0.1789,-0.1785,-0.1783,-0.1781,-0.1674,-0.1674,0,0,0,0,0,0,-0.2169,-0.215,-0.2035,-0.2029,-0.2093,-0.2018,-0.2005,-0.198,-0.191,-0.1899,-0.194,-0.1938,-0.1842,-0.1832,-0.1823,-0.1785,-0.1784,-0.178,-0.1778,-0.1675,-0.1674,-0.1674,0,0,0,0,0,0,-0.2173,-0.216,-0.2039,-0.2088,-0.2072,-0.2015,-0.1987,-0.1978,-0.1957,-0.1898,-0.1888,-0.193,-0.1841,-0.1829,-0.1787,-0.1781,-0.1778,-0.1774,-0.1675,-0.1674,-0.1674,-0.171,0,0,0,0,0,0,-0.2178,-0.2161,-0.215,-0.2089,-0.207,-0.2005,-0.1987,-0.1976,-0.195,-0.1946,-0.1885,-0.1875,-0.1841,-0.1794,-0.1783,-0.1775,-0.1771,-0.1675,-0.1675,-0.1674,-0.1709,-0.1711,-0.1712,0,0,0,0,0,-0.2183,-0.2163,-0.2149,-0.2136,-0.2054,-0.2005,-0.1994,-0.1955,-0.1949,-0.1937,-0.19,-0.1877,-0.1784,-0.179,-0.1777,-0.1768,-0.1675,-0.1675,-0.1674,-0.1708,-0.171,-0.1712,0,0,0,0,0,0,-0.2225,-0.2155,-0.2138,-0.2098,-0.2058,-0.1997,-0.198,-0.1958,-0.1919,-0.1917,-0.187,-0.1856,-0.1818,-0.1789,-0.1797,-0.1737,-0.1727,-0.1724,-0.1758,-0.1759,-0.1761,-0.1769,-0.1767,0,0,0,0,0,-0.2229,-0.2195,-0.2136,-0.2106,-0.2087,-0.2037,-0.2014,-0.1988,-0.1944,-0.1926,-0.1886,-0.1844,-0.1805,-0.1781,-0.1742,-0.1705,-0.1691,-0.1692,-0.1694,-0.1696,-0.1693,-0.1672,-0.1672,-0.1673,-0.1673,-0.1673,0,0,-0.2238,-0.2195,-0.2176,-0.2113,-0.2079,-0.2045,-0.2023,-0.1987,-0.1962,-0.1921,-0.1879,-0.1848,-0.1798,-0.1759,-0.1739,-0.1733,-0.169,-0.1695,-0.1697,-0.1693,-0.1672,-0.1672,-0.1672,-0.1672,-0.1672,-0.1672,0,0,-0.2236,-0.2201,-0.2172,-0.2139,-0.2087,-0.2055,-0.2048,-0.199,-0.1969,-0.1926,-0.1895,-0.1863,-0.1797,-0.1764,-0.1738,-0.1725,-0.1703,-0.1714,-0.1723,-0.1703,-0.1703,-0.1702,-0.1698,-0.1697,-0.1712,-0.1712,-0.1712,0,-0.2253,-0.22,-0.216,-0.2127,-0.21,-0.2062,-0.2033,-0.2003,-0.1941,-0.1924,-0.1918,-0.1835,-0.1799,-0.1751,-0.1749,-0.1729,-0.172,-0.172,-0.1706,-0.1705,-0.1704,-0.17,-0.1698,-0.1714,-0.1713,-0.1713,-0.1713,0,-0.2224,-0.2188,-0.2172,-0.2114,-0.2085,-0.2054,-0.2009,-0.1985,-0.1962,-0.193,-0.1887,-0.1843,-0.1795,-0.1782,-0.1758,-0.1731,-0.1729,-0.1715,-0.1704,-0.1707,-0.1702,-0.17,-0.1716,-0.1715,-0.1715,-0.1714,0,0,-0.2244,-0.2166,-0.216,-0.2134,-0.2076,-0.2047,-0.2015,-0.1969,-0.1949,-0.1908,-0.188,-0.1826,-0.1813,-0.1784,-0.1756,-0.1739,-0.1733,-0.1727,-0.1725,-0.173,-0.1701,-0.1712,-0.171,-0.1718,-0.1717,-0.1717,-0.1705,0,-0.2234,-0.2175,-0.2138,-0.2094,-0.206,-0.2025,-0.1997,-0.1958,-0.1928,-0.1895,-0.1862,-0.1824,-0.181,-0.1793,-0.1774,-0.1737,-0.1726,-0.1738,-0.1691,-0.169,-0.1704,-0.1707,-0.1718,-0.1709,-0.1703,-0.1702,-0.1702,0,-0.2214,-0.2176,-0.2128,-0.2074,-0.2059,-0.2034,-0.1989,-0.1959,-0.1914,-0.1894,-0.1862,-0.1835,-0.1799,-0.1792,-0.1743,-0.1752,-0.1731,-0.171,-0.1709,-0.1703,-0.1696,-0.1701,-0.1705,-0.1704,-0.1699,-0.1699,-0.1699,0,-0.2234,-0.217,-0.2133,-0.2112,-0.2048,-0.2032,-0.2005,-0.1961,-0.1935,-0.1896,-0.188,-0.1837,-0.1813,-0.1781,-0.1742,-0.1741,-0.1697,-0.1687,-0.1679,-0.168,-0.1671,-0.1672,-0.1671,-0.1658,-0.1658,-0.1658,-0.1658,0,-0.2227,-0.2199,-0.2141,-0.2119,-0.2087,-0.2046,-0.2015,-0.1985,-0.1946,-0.1917,-0.1884,-0.1858,-0.1809,-0.1776,-0.1746,-0.1711,-0.17,-0.1682,-0.1675,-0.1685,-0.1688,-0.167,-0.167,-0.1658,-0.1658,-0.1658,-0.1658,0,-0.2243,-0.2203,-0.2161,-0.2105,-0.209,-0.2069,-0.2021,-0.1998,-0.1967,-0.1931,-0.192,-0.1871,-0.1831,-0.179,-0.1736,-0.1715,-0.1681,-0.167,-0.1696,-0.1692,-0.1686,-0.1687,-0.1674,-0.1671,-0.166,-0.166,-0.1661,0,-0.2241,-0.2219,-0.2161,-0.2139,-0.2113,-0.2079,-0.2053,-0.2012,-0.1987,-0.1936,-0.1919,-0.1877,-0.1841,-0.1779,-0.1739,-0.1697,-0.1685,-0.1684,-0.1679,-0.1691,-0.1685,-0.1687,-0.1685,-0.1685,-0.1686,-0.1686,-0.1686,0,-0.2241,-0.2223,-0.2188,-0.2146,-0.2117,-0.2081,-0.2045,-0.2029,-0.1981,-0.1955,-0.1914,-0.1887,-0.1832,-0.1791,-0.1745,-0.1717,-0.1694,-0.1688,-0.1684,-0.1695,-0.1711,-0.1702,-0.1701,-0.1688,-0.1688,-0.1688,-0.1688,-0.1688,-0.2248,-0.2227,-0.2183,-0.2145,-0.2114,-0.2081,-0.2057,-0.2023,-0.1989,-0.1942,-0.192,-0.1879,-0.1836,-0.1773,-0.1745,-0.1713,-0.1706,-0.17,-0.1699,-0.1698,-0.1701,-0.1716,-0.1704,-0.1704,-0.1704,-0.1704,-0.1704,0,-0.2246,-0.2217,-0.2183,-0.2133,-0.2104,-0.2085,-0.2045,-0.2021,-0.1986,-0.1948,-0.1914,-0.1868,-0.1829,-0.1785,-0.1743,-0.1726,-0.1714,-0.1716,-0.1717,-0.1711,-0.1709,-0.1717,-0.1726,-0.1726,-0.1726,-0.1726,-0.1726,-0.1726,-0.2242,-0.2206,-0.2183,-0.2132,-0.2102,-0.2063,-0.2041,-0.2011,-0.1981,-0.1931,-0.1898,-0.1871,-0.1831,-0.1786,-0.1749,-0.1737,-0.1723,-0.1728,-0.1714,-0.1713,-0.1711,-0.1709,-0.1716,-0.1726,-0.1726,-0.1718,-0.1718,-0.1718]},{"header":{"parameterUnit":"m.s-1","parameterCategory":1,"la1":30.2991,"la2":30.254,"lo1":-89.0895,"lo2":-89.0444,"dy":0.0017,"dx":0.0017,"nx":28,"ny":28,"refTime":"2024-03-16T09:00:00:Z","depth":0,"parameterNumber":3,"parameterNumberName":"V-component_of_WINDS"},"data":[0,0,0,0,0,0,0,0,0,0,0,0,0,0,0,0,0,0,0,0,0,0,0,0,0,0,0,0,0,0,0,0,0,0,0,0,0,0,0,0,0,0,0,0,0,0,0,0,0,0,0,0,0,0,0,0,0,0,1.3053,1.3052,0,1.3008,1.3008,1.3007,1.2984,1.2984,1.2984,1.2984,1.2934,1.2933,1.2932,0,0,0,0,0,0,0,0,0,0,0,0,0,1.3115,1.3114,1.3053,1.3052,1.3052,1.3008,1.3008,1.3007,1.2984,1.2984,1.2984,1.2984,1.2935,1.2933,1.2932,0,0,0,0,0,0,0,0,0,0,0,0,0,1.3081,1.3114,1.3053,1.3035,1.3033,1.3008,1.3008,1.3007,1.2984,1.2984,1.2984,1.2984,1.2935,1.2934,1.2932,1.292,0,0,1.2926,1.2925,0,0,0,0,0,0,0,0,1.3083,1.3079,1.3038,1.3036,1.3034,1.3002,1.3011,1.2978,1.2984,1.3002,1.2984,1.2984,1.2957,1.2953,1.2944,1.2918,1.2916,1.2926,1.2924,1.2924,1.2923,0,0,0,0,0,0,0,1.3085,1.308,1.3035,1.3038,1.3035,1.3028,1.3023,1.3005,1.298,1.3001,1.2999,1.2994,1.2955,1.2946,1.2943,1.2915,1.2926,1.2924,1.2923,1.2922,1.2877,1.2877,0,0,0,0,0,0,1.3091,1.3083,1.3036,1.3034,1.3059,1.3027,1.3022,1.3012,1.298,1.2975,1.2994,1.2993,1.295,1.2945,1.2941,1.2926,1.2924,1.2922,1.2921,1.2877,1.2877,1.2877,0,0,0,0,0,0,1.3092,1.3087,1.3038,1.3058,1.3051,1.3026,1.3015,1.3011,1.3002,1.2975,1.297,1.299,1.295,1.2944,1.2926,1.2924,1.2921,1.2919,1.2877,1.2877,1.2877,1.2895,0,0,0,0,0,0,1.3094,1.3088,1.3084,1.3058,1.305,1.3025,1.3015,1.301,1.2999,1.2998,1.297,1.2965,1.2949,1.2929,1.2924,1.2921,1.2918,1.2877,1.2877,1.2877,1.2894,1.2896,1.2897,0,0,0,0,0,1.3097,1.309,1.3084,1.3079,1.3045,1.3025,1.302,1.3002,1.2999,1.2995,1.2977,1.2966,1.2925,1.2927,1.2921,1.2918,1.2877,1.2877,1.2877,1.2894,1.2895,1.2897,0,0,0,0,0,0,1.3116,1.3087,1.3079,1.3065,1.3047,1.3021,1.3015,1.3004,1.2987,1.2986,1.2964,1.2958,1.2942,1.2928,1.2931,1.2905,1.29,1.2898,1.2915,1.2916,1.2917,1.2921,1.2916,0,0,0,0,0,1.3119,1.3106,1.308,1.307,1.3062,1.304,1.303,1.3018,1.2999,1.2991,1.2973,1.2954,1.2936,1.2925,1.2908,1.2892,1.2886,1.2887,1.2888,1.2889,1.2888,1.2879,1.2879,1.2876,1.2876,1.2876,0,0,1.3124,1.3106,1.3099,1.3073,1.3058,1.3045,1.3034,1.3019,1.3008,1.2989,1.2971,1.2956,1.2933,1.2917,1.2908,1.2905,1.2887,1.2889,1.289,1.2888,1.2878,1.2879,1.2879,1.2876,1.2876,1.2876,0,0,1.3126,1.3112,1.3101,1.3087,1.3065,1.3051,1.3048,1.3023,1.3013,1.2995,1.298,1.2966,1.2937,1.2921,1.2909,1.2906,1.2895,1.29,1.2906,1.2897,1.2897,1.2897,1.2896,1.2895,1.29,1.29,1.29,0,1.3135,1.3115,1.3097,1.3084,1.3072,1.3055,1.3044,1.303,1.3004,1.2996,1.2992,1.2955,1.2939,1.2918,1.2917,1.2908,1.2904,1.2904,1.2899,1.2898,1.2898,1.2896,1.2896,1.2901,1.2901,1.29,1.29,0,1.3126,1.3112,1.3106,1.3082,1.307,1.3058,1.3038,1.3027,1.3016,1.3002,1.2983,1.2962,1.2941,1.2935,1.2923,1.2912,1.291,1.2903,1.2897,1.29,1.2898,1.2897,1.2902,1.2902,1.2901,1.2901,0,0,1.314,1.3106,1.3104,1.3093,1.3068,1.3056,1.3043,1.3022,1.3014,1.2996,1.2983,1.2959,1.2952,1.2939,1.2925,1.2917,1.2916,1.2911,1.291,1.2912,1.2901,1.2907,1.2907,1.2908,1.2908,1.2908,1.2903,0,1.3138,1.3115,1.3099,1.3081,1.3068,1.3051,1.3039,1.3021,1.3007,1.2993,1.2977,1.296,1.2952,1.2944,1.2935,1.2918,1.2913,1.2918,1.2895,1.2895,1.2902,1.2906,1.2911,1.2908,1.2902,1.2902,1.2902,0,1.3134,1.3118,1.3099,1.3075,1.3069,1.3059,1.3039,1.3026,1.3005,1.2995,1.298,1.2967,1.2951,1.2946,1.2923,1.2927,1.2917,1.2907,1.2906,1.2903,1.2899,1.2903,1.2907,1.2907,1.2901,1.2901,1.2901,0,1.3146,1.3119,1.3104,1.3095,1.3067,1.306,1.3048,1.3028,1.3016,1.2998,1.299,1.297,1.2959,1.2944,1.2924,1.2923,1.2903,1.2897,1.2894,1.2895,1.2891,1.2891,1.2893,1.2884,1.2884,1.2884,1.2884,0,1.3146,1.3135,1.3109,1.31,1.3087,1.3068,1.3056,1.3042,1.3024,1.3011,1.2994,1.2982,1.2958,1.2943,1.2927,1.2911,1.2906,1.2897,1.2893,1.2898,1.2899,1.2891,1.2891,1.2884,1.2884,1.2884,1.2884,0,1.3157,1.3139,1.3122,1.3097,1.309,1.3082,1.306,1.305,1.3035,1.3019,1.3014,1.299,1.2971,1.2951,1.2925,1.2915,1.2898,1.2893,1.2906,1.2904,1.2902,1.2902,1.2899,1.2897,1.2889,1.2889,1.2889,0,1.3158,1.315,1.3124,1.3115,1.3104,1.3089,1.3078,1.3058,1.3047,1.3023,1.3015,1.2996,1.2979,1.2949,1.2929,1.2909,1.2902,1.2902,1.2899,1.2905,1.2902,1.2903,1.2902,1.2903,1.2904,1.2904,1.2904,0,1.3163,1.3155,1.314,1.3122,1.3109,1.3093,1.3077,1.307,1.3047,1.3035,1.3016,1.3003,1.2977,1.2957,1.2934,1.292,1.2908,1.2905,1.2903,1.2909,1.2917,1.2912,1.2909,1.2905,1.2905,1.2905,1.2905,1.2905,1.3169,1.3161,1.3141,1.3125,1.3111,1.3096,1.3086,1.307,1.3054,1.3032,1.3021,1.3002,1.2981,1.295,1.2936,1.292,1.2916,1.2914,1.2913,1.2913,1.2914,1.2919,1.2916,1.2916,1.2916,1.2916,1.2916,0,1.3173,1.3159,1.3145,1.3123,1.311,1.3101,1.3082,1.3071,1.3055,1.3037,1.3021,1.2999,1.298,1.2958,1.2937,1.2929,1.2923,1.2924,1.2924,1.2921,1.2919,1.2922,1.2929,1.2929,1.2929,1.2929,1.2929,1.2929,1.3173,1.3158,1.3148,1.3126,1.3112,1.3094,1.3085,1.307,1.3056,1.3033,1.3017,1.3003,1.2983,1.2961,1.2942,1.2936,1.2929,1.2932,1.2925,1.2923,1.2921,1.292,1.2924,1.2931,1.2931,1.2928,1.2928,1.2928]}]]